Regional Weather Roundup
Issued by NWS Albany, NY

Home | Current Version | Previous Version | Text Only | Print | Product List | Glossary On
Versions: 1 2 3 4 5 6 7 8 9 10 11 12 13 14 15 16 17 18 19 20 21 22 23 24 25 26 27 28 29 30 31 32 33 34 35 36 37 38 39 40 41 42 43 44 45 46 47 48 49 50
000
ASUS41 KALY 280110
RWRALY

NEW YORK STATE HOURLY WEATHER ROUNDUP
NATIONAL WEATHER SERVICE ALBANY NY
900 PM EDT WED AUG 27 2014

NOTE: "FAIR" INDICATES FEW OR NO CLOUDS BELOW 12,000 FEET WITH NO
SIGNIFICANT WEATHER AND/OR NO OBSTRUCTIONS TO VISIBILITY.

NYZ032-033-038>043-046>054-057>066-NYZ062>081-280200-
EAST


CITY           SKY/WX    TMP DP  RH WIND       PRES   REMARKS
ALBANY         MOCLDY    73  59  61 W7        29.94R
GLENS FALLS    MOCLDY    72  63  73 E3        29.91R
POUGHKEEPSIE   PTCLDY    73  70  90 CALM      29.90R
NEWBURGH       PTCLDY    75  72  88 VRB5      29.94R
MONTGOMERY     MOCLDY    77  69  76 NE5       29.92R
WHITE PLAINS   MOCLDY    78  64  61 E5        29.92R
ISLIP          PTCLDY    74  66  76 S5        29.89R
NEW YORK CITY  PTCLDY    80  65  59 S12       29.88R
CENTRAL PARK   CLOUDY    83  65  54 VRB3      29.92R
$$

NYZ005>009-017-018-044>046-055-056-280200-
CENTRAL


CITY           SKY/WX    TMP DP  RH WIND       PRES   REMARKS
FULTON         PTCLDY    65  58  78 W5        29.99S
SYRACUSE       MOCLDY    66  58  75 W7        29.99S
ROME           MOCLDY    65  58  78 NW8       30.00R
ELMIRA         PTCLDY    69  60  73 NE7       30.00R
BINGHAMTON     MOCLDY    68  62  81 N9        30.01R
MONTICELLO     CLEAR     70  66  88 N6        29.99R
$$

NYZ026>034-041>043-280200-
NORTH


CITY           SKY/WX    TMP DP  RH WIND       PRES   REMARKS
WATERTOWN      PTCLDY    67  60  78 SW3       29.96R
FORT DRUM      NOT AVBL
MASSENA        CLOUDY    67  60  78 W3        29.95S
SARANAC LAKE   CLOUDY    63  57  81 CALM      29.97R
PLATTSBURGH    CLOUDY    70  59  68 N5        29.92R
$$

NYZ001>004-010>016-019>021-280200-
WEST


CITY           SKY/WX    TMP DP  RH WIND       PRES   REMARKS
NIAGARA FALLS  PTCLDY    65  56  72 NE7       30.04R
BUFFALO        PTCLDY    67  57  70 N10G17    30.05R
DUNKIRK        PTCLDY    70  59  68 VRB7      30.05R
JAMESTOWN      CLEAR     63  57  82 W8        30.08R
WELLSVILLE     CLEAR     64  55  72 NW12      30.08R
ROCHESTER      PTCLDY    66  56  70 NW7       30.03R
PENN YAN       PTCLDY    67  56  67 N7        30.03R
$$

             KEY
       WCI = WIND CHILL INDEX
       VSB = VISIBILITY
       HX  = HEAT INDEX
$$


USA.gov is the U.S. government's official web portal to all federal, state and local government web resources and services.